Weather History for Barcelona / Aeropuerto, Spain

Change the Weather History Date:

Saturday, April 20, 2013

  Actual Average Record
Temperature  
Mean Temperature 58 °F -  
Max Temperature 66 °F 66 °F - ()
Min Temperature 49 °F 54 °F - ()
Degree Days  
Heating Degree Days 8    
Growing Degree Days 8 (Base 50)    
Moisture  
Dew Point 42 °F    
Average Humidity 57    
Maximum Humidity 82    
Minimum Humidity 31    
Precipitation  
Precipitation 0.00 in 0.07 in - ()
Sea Level Pressure  
Sea Level Pressure 30.13 in    
Wind  
Wind Speed 9 mph ()    
Max Wind Speed 25 mph    
Max Gust Speed 24 mph    
Visibility 7.0 miles    
Events      
T = Trace of Precipitation, MM = Missing Value Source: Averaged Metar Reports

Daily Weather History Graph

Daily Weather History Graph

Search for Another Location

Airport:

Trip Planner

Search our weather history database for the weather conditions in past years. The results will help you decide how hot, cold, wet, or windy it might be!

Date:

Astronomy

Apr. 20, 2013 Rise Set
Actual Time 7:04 AM CEST 8:37 PM CEST
Civil Twilight 6:35 AM CEST 9:06 PM CEST
Nautical Twilight 6:00 AM CEST 9:41 PM CEST
Astronomical Twilight 5:23 AM CEST 10:18 PM CEST
Moon 3:02 PM CEST (4/20) 3:49 AM CEST (4/20)
Length of Visible Light 14h 30m
Length of Day
13h 32m
Waxing Gibbous, 68% of the Moon is Illuminated
Apr 20
Waxing Gibbous
Apr 25
Full
May 2
Last Quarter
May 10
New
May 18
First Quarter

Hourly Weather History & Observations

Time (CEST) Temp. Dew Point Humidity Pressure Visibility Wind Dir Wind Speed Gust Speed Precip Events Conditions
12:00 AM 55.4 °F 48.2 °F 77% 30.18 in 6.2 mi NNW 3.5 mph - N/A   Partly Cloudy
12:30 AM 55.4 °F 48.2 °F 77% 30.18 in 6.2 mi WNW 4.6 mph - N/A   Partly Cloudy
1:00 AM 53.6 °F 48.2 °F 82% 30.18 in 6.2 mi West 2.3 mph - N/A   Partly Cloudy
1:30 AM 53.6 °F 48.2 °F 82% 30.18 in 6.2 mi WNW 5.8 mph - N/A   Partly Cloudy
2:00 AM 54 °F 46 °F 68% 30.21 in 16 mi NW 5.8 mph - -   Scattered Clouds
2:00 AM 53.6 °F 48.2 °F 82% 30.18 in 6.2 mi WNW 5.8 mph - N/A   Partly Cloudy
2:30 AM 53.6 °F 46.4 °F 77% 30.18 in 6.2 mi WNW 4.6 mph - N/A   Partly Cloudy
3:00 AM 53.6 °F 46.4 °F 77% 30.18 in 6.2 mi WNW 5.8 mph - N/A   Partly Cloudy
3:30 AM 53.6 °F 46.4 °F 77% 30.18 in 6.2 mi WNW 3.5 mph - N/A   Scattered Clouds
4:00 AM 53.6 °F 46.4 °F 77% 30.18 in 6.2 mi WNW 2.3 mph - N/A   Partly Cloudy
4:30 AM 53.6 °F 46.4 °F 77% 30.18 in 6.2 mi Calm Calm - N/A   Scattered Clouds
5:00 AM 55.4 °F 50.0 °F 82% 30.15 in 6.2 mi NW 4.6 mph - N/A   Scattered Clouds
5:30 AM 53.6 °F 46.4 °F 77% 30.15 in 6.2 mi NW 9.2 mph - N/A   Partly Cloudy
6:00 AM 51.8 °F 39.2 °F 62% 30.15 in 6.2 mi NW 9.2 mph - N/A   Partly Cloudy
6:30 AM 50.0 °F 35.6 °F 58% 30.18 in 6.2 mi West 5.8 mph - N/A   Partly Cloudy
7:00 AM 51.8 °F 33.8 °F 50% 30.18 in 6.2 mi WNW 11.5 mph - N/A   Partly Cloudy
7:30 AM 51.8 °F 33.8 °F 50% 30.18 in 6.2 mi WNW 9.2 mph - N/A   Partly Cloudy
8:00 AM 52 °F 34 °F 38% 30.20 in 19 mi NNW 12.7 mph - -   Scattered Clouds
8:00 AM 51.8 °F 33.8 °F 50% 30.18 in 6.2 mi WNW 9.2 mph - N/A   Partly Cloudy
8:30 AM 51.8 °F 35.6 °F 54% 30.18 in 6.2 mi NW 10.4 mph - N/A   Partly Cloudy
9:00 AM 53.6 °F 35.6 °F 51% 30.18 in 6.2 mi NNW 6.9 mph - N/A   Partly Cloudy
9:30 AM 55.4 °F 37.4 °F 51% 30.21 in 6.2 mi NNW 10.4 mph 24.2 mph N/A   Partly Cloudy
10:00 AM 55.4 °F 33.8 °F 44% 30.18 in 6.2 mi NNW 12.7 mph - N/A   Partly Cloudy
10:30 AM 57.2 °F 33.8 °F 41% 30.18 in 6.2 mi NNW 12.7 mph - N/A   Partly Cloudy
11:00 AM 59.0 °F 35.6 °F 42% 30.18 in 6.2 mi NW 10.4 mph 21.9 mph N/A   Partly Cloudy
11:30 AM 60.8 °F 32.0 °F 34% 30.18 in 6.2 mi NW 9.2 mph - N/A   Partly Cloudy
12:00 PM 60.8 °F 30.2 °F 31% 30.18 in 6.2 mi WSW 9.2 mph - N/A   Partly Cloudy
12:30 PM 60.8 °F 35.6 °F 39% 30.15 in 6.2 mi SSW 11.5 mph - N/A   Partly Cloudy
1:00 PM 60.8 °F 39.2 °F 45% 30.15 in 6.2 mi South 13.8 mph - N/A   Partly Cloudy
1:30 PM 60.8 °F 39.2 °F 45% 30.12 in 6.2 mi SSW 16.1 mph - N/A   Partly Cloudy
2:00 PM 63 °F 41 °F 33% 30.13 in 19 mi SSW 13.8 mph - -   Scattered Clouds
2:00 PM 62.6 °F 42.8 °F 48% 30.12 in 6.2 mi SSW 16.1 mph - N/A   Partly Cloudy
2:30 PM 62.6 °F 42.8 °F 48% 30.12 in 6.2 mi South 17.3 mph - N/A   Partly Cloudy
3:00 PM 64.4 °F 44.6 °F 49% 30.09 in 6.2 mi SSW 19.6 mph - N/A   Partly Cloudy
3:30 PM 66.2 °F 41.0 °F 40% 30.09 in 6.2 mi SW 21.9 mph - N/A   Partly Cloudy
4:00 PM 66.2 °F 37.4 °F 35% 30.06 in 6.2 mi SW 25.3 mph - N/A   Partly Cloudy
4:30 PM 66.2 °F 39.2 °F 37% 30.06 in 6.2 mi SW 23.0 mph - N/A   Partly Cloudy
5:00 PM 66.2 °F 37.4 °F 35% 30.06 in 6.2 mi SW 23.0 mph - N/A   Partly Cloudy
5:30 PM 64.4 °F 41.0 °F 42% 30.04 in 6.2 mi SW 24.2 mph - N/A   Partly Cloudy
6:00 PM 64.4 °F 41.0 °F 42% 30.04 in 6.2 mi SW 23.0 mph - N/A   Partly Cloudy
6:30 PM 62.6 °F 44.6 °F 52% 30.04 in 6.2 mi SW 21.9 mph - N/A   Partly Cloudy
7:00 PM 60.8 °F 50.0 °F 68% 30.04 in 6.2 mi SW 25.3 mph - N/A   Partly Cloudy
7:30 PM 60.8 °F 48.2 °F 63% 30.04 in 6.2 mi SW 23.0 mph - N/A   Partly Cloudy
8:00 PM 60 °F 48 °F 55% 30.06 in 11 mi WSW 20.7 mph - -   Scattered Clouds
8:00 PM 59.0 °F 48.2 °F 67% 30.04 in 6.2 mi WSW 23.0 mph - N/A   Partly Cloudy
8:30 PM 59.0 °F 48.2 °F 67% 30.04 in 6.2 mi WSW 21.9 mph - N/A   Partly Cloudy
9:00 PM 59.0 °F 50.0 °F 72% 30.06 in 6.2 mi WSW 16.1 mph - N/A   Partly Cloudy
9:30 PM 60.8 °F 46.4 °F 59% 30.09 in 6.2 mi North 5.8 mph - N/A   Partly Cloudy
10:00 PM 59.0 °F 48.2 °F 67% 30.09 in 6.2 mi North 6.9 mph - N/A   Partly Cloudy
10:30 PM 59.0 °F 48.2 °F 67% 30.12 in 6.2 mi North 8.1 mph - N/A   Partly Cloudy
11:00 PM 59.0 °F 46.4 °F 63% 30.12 in 6.2 mi NNE 8.1 mph - N/A   Partly Cloudy
11:30 PM 57.2 °F 46.4 °F 67% 30.12 in 6.2 mi NNE 5.8 mph - N/A   Partly Cloudy